44P/Reinmuth 2 (2001)

Japanese version
Home page
Updated on March 11, 2009

---------------------------------------------------------------------

* Profile

* Orbital Elements

Epoch 2001 Feb. 20.0 TT = JDT 2451960.5  
T 2001 Feb. 19.99157 TT                                 Muraoka 
q   1.8897248            (2000.0)            P               Q
n   0.14867037     Peri.   46.10321     +0.94717878     +0.30154668
a   3.5290118      Node   296.06852     -0.31789658     +0.83782541
e   0.4645173      Incl.    6.98176     -0.04235702     +0.45510239
P   6.63
From 292 observations 1974-2000, mean residual 0".77.  Nongravitational
   parameters A1 = -0.36 +/- 0.03, A2 = -0.0113 +/- 0.0002.

* Finding Charts

* Magnitudes Graph

        m1 =  9.0 + 5 log d + 15.0 log r  [ ,0]  (             - 2001 Feb. 19)
        m1 = 10.4 + 5 log d + 10.0 log r  [0, ]  (2001 Feb. 19 -             )

---------------------------------------------------------------------

The orbital elements are calculated by Kenji Muraoka.
The charts are made with StellaNavigator Ver.2.0 for Windows (AstroArts / ASCII).
The magnitudes graphs are made with Comet for Windows.

---------------------------------------------------------------------

Copyright(C) Seiichi Yoshida (comet@aerith.net). All rights reserved.